Regional Weather Roundup
Issued by NWS Wakefield, VA

Home | Current Version | Previous Version | Graphics & Text | Print | Product List | Glossary On
Versions: 1 2 3 4 5 6 7 8 9 10 11 12 13 14 15 16 17 18 19 20 21 22 23 24 25 26 27 28 29 30 31 32 33 34 35 36 37 38 39 40 41 42 43 44 45 46 47 48 49 50
637
ASUS41 KAKQ 241815
RWRAKQ

REGIONAL WEATHER ROUNDUP
NATIONAL WEATHER SERVICE WAKEFIELD VA
200 PM EDT FRI MAR 24 2017

Note: "fair" indicates few or no clouds below 12,000 feet with no
significant weather and/or obstructions to visibility. * = Denotes
station may not report precipitation (e.g., rain,snow,etc.),
thunder or fog.

VAZ042-051-052>054-056-241900-
NORTHERN VIRGINIA

CITY           SKY/WX    TMP DP  RH WIND       PRES   REMARKS
WASH NATIONAL  PTSUNNY   53  36  52 SW17G23   30.32F
DULLES         PTSUNNY   51  35  54 SW12G21   30.30F
FORT BELVOIR   SUNNY     54  32  44 S14G20    30.31F
QUANTICO       PTSUNNY   54  32  43 SW14G25   30.34F
FREDERICKSBRG* SUNNY     54  33  44 SW13G28   30.34F
STAFFORD*      MOSUNNY   53  32  45 SW14G21   30.37F
WARRENTON      SUNNY     55  32  41 SW13G23   30.31F
CULPEPER*      CLOUDY    53  36  50 S16G22    30.33F
MANASSAS*      CLOUDY    53  35  50 SW15G23   30.31F
LEESBURG*      MOSUNNY   54  41  62 S10       30.29F
WINCHESTER     MOSUNNY   55  37  50 S10       30.24F
FRONT ROYAL*     N/A    N/A N/A N/A MISG        N/A
LURAY*         PTCLDY    59  37  44 SW13      30.27F
$$

VAZ048-049-060>072-079>083-241900-
CENTRAL AND SOUTH CENTRAL VIRGINIA

CITY           SKY/WX    TMP DP  RH WIND       PRES   REMARKS
RICHMOND       PTSUNNY   64  32  30 SW21G30   30.37F
CHESTERFIELD*  FAIR      63  28  27 SW13G25   30.39F
PETERSBURG*    CLOUDY    65  32  29 SW14G23   30.38F
HANOVER        MOSUNNY   62  32  32 S20       30.37F
TAPPAHANNOCK*  MOSUNNY   58  10  15 S13G18    30.36F
QUINTON*       CLOUDY    62  31  31 SW14G21   30.37F
CHARLOTTSVILLE MOSUNNY   58  33  39 S10       30.33F
GORDONSVILLE*  CLOUDY    55  35  47 S15G21    30.34F
ORANGE*        PTSUNNY   52  34  50 S16       30.35F
LOUISA*        CLOUDY    55  36  47 SW9       30.34F
BUMPASS*       CLOUDY    54  32  43 SW12G24   30.35F
FARMVILLE*     CLOUDY    59  37  43 SW12G18   30.36F
CREWE*         CLOUDY    64  41  43 SW16G22   30.38F
FORT PICKETT*  FAIR      66  30  26 SW18G24   30.38F
CHASE CITY*    FAIR      65  42  43 SW7G22    30.40F
CLARKSVILLE*   MOCLDY    64  45  48 SW17G23   30.40F
SOUTH HILL*    MOSUNNY   65  45  48 SW17G25   30.46F
LAWRENCEVILLE* FAIR      64  42  43 SW14G21   30.39F
EMPORIA*       SUNNY     64  41  42 SW12G17   30.42F
$$

VAZ088>098-241900-
SOUTHEAST VIRGINIA

CITY           SKY/WX    TMP DP  RH WIND       PRES   REMARKS
NORFOLK        PTSUNNY   64  34  32 SW15G25   30.40F
VIRGINIA BEACH MOSUNNY   65  37  35 SW15G22   30.40F
NORFOLK NAVAL  MOSUNNY   66  34  30 SW13G22   30.40F
WEST POINT*    CLOUDY    62  30  29 SW14      30.38F
SALUDA*        CLOUDY    60  32  34 S14G21    30.36F
NEWPORT NEWS   CLOUDY    62  35  36 SW16      30.39F
LANGLEY AFB    CLOUDY    62  37  38 S16       30.38F
FORT EUSTIS    PTSUNNY   64  36  35 S10G17    30.36F
WILLIAMSBURG*  SUNNY     64  36  34 S8G16     30.39F
HR EXEC AP*    FAIR      66  37  34 SW12G24   30.39F
FRANKLIN*      SUNNY     65  38  37 SW12G17   30.41F
US460-WAKEFLD  CLOUDY    64  35  34 SW15G24   30.39F
$$

VAZ020-022-025-037-045-241900-
WEST CENTRAL AND SOUTHWEST VIRGINIA

CITY           SKY/WX    TMP DP  RH WIND       PRES   REMARKS
STAUNTON*      MOSUNNY   62  35  35 SW15      30.30F
WAYNESBORO*    PTCLDY    63  37  38 SW13      30.30F
HOT SPRINGS VA SUNNY     59  32  36 W15       30.33F
LYNCHBURG      PTSUNNY   62  40  44 SW16G23   30.37F
DANVILLE       MOSUNNY   65  46  50 SW17G28   30.40F
SOUTH BOSTON*  FAIR      66  42  41 SW18G32   30.40F
MARTINSVILLE   CLOUDY    63  42  46 SW12G21   30.41F
ROANOKE        MOSUNNY   62  33  33 SE7       30.37F
BLACKSBURG     MOSUNNY   64  39  39 SW3       30.38F
DUBLIN*        PTSUNNY   67  38  35 SW3       30.36F
MARION*        CLOUDY    68  43  40 W17       30.38F
HILLSVILLE*    CLOUDY    59  43  55 S7G20     30.37F
RICHLANDS*     CLOUDY    64  44  49 CALM      30.36S
WISE*          CLOUDY    64  43  45 W14       30.37S
ABINGDON*      CLOUDY    69  43  39 W6        30.36F
$$

MDZ021>025-VAZ099-100-241900-
SOUTHERN MARYLAND AND THE DELMARVA PENINSULA

CITY           SKY/WX    TMP DP  RH WIND       PRES   REMARKS
PATUXENT RIVER CLOUDY    53  33  46 S9        30.35F
BAY BRIDGE APT CLOUDY    52  30  43 S17       30.32F
LEONARDTOWN    CLOUDY    54  28  37 SW12G17   30.35F
DOVER          CLOUDY    57  33  39 SW24G36   30.30F
GEORGETOWN     MOSUNNY   61  28  28 MISG      30.35F
EASTON         CLOUDY    55  28  35 SW15G25   30.38F
CAMBRIDGE      SUNNY     54  28  37 SW14G21   30.35F
SALISBURY      MOSUNNY   61  28  28 SW14      30.36F
OCEAN CITY     PTSUNNY   51  35  54 SW15      30.39F
WALLOPS ISLAND PTSUNNY   52  39  61 S20       30.39F
ACCOMACK*      CLOUDY    57  40  53 S15       30.39F
$$

NCZ012>017-030>032-241900-
NORTH CENTRAL AND EASTERN NORTH CAROLINA

CITY           SKY/WX    TMP DP  RH WIND       PRES   REMARKS
ROANOKE RAPIDS FAIR      66  45  45 SW15      30.42F
RALEIGH        PTSUNNY   67  45  45 SW20      30.44F
ELIZABETH CITY SUNNY     65  40  39 SW17G28   30.44F
AHOSKIE*         N/A     66  43  42 SW7       30.42F
EDENTON*       SUNNY     67  43  41 SW10      30.44F
CURRITUCK*     SUNNY     65  40  40 S9G18     30.43F
KILL DEVIL HLS NOT AVBL
MANTEO         SUNNY     63  44  48 SW15      30.45F
CAPE HATTERAS  SUNNY     66  49  54 VRB7      30.49F
TARBORO*       NOT AVBL
GOLDSBORO      MOSUNNY   70  42  37 SW15      30.43F
WASHINGTON     SUNNY     68  44  41 SW12G21   30.45F
GREENVILLE     MOSUNNY   70  43  37 SW10G23   30.44F
NEW BERN       MOSUNNY   71  45  39 W12G22    30.47F
WILMINGTON     MOSUNNY   69  47  45 S10G20    30.47F
$$

VAZ048-241900-
ELSEWHERE

CITY           SKY/WX    TMP DP  RH WIND       PRES   REMARKS
HARRISBURG PA  PTSUNNY   51  38  60 VRB7      30.25F
BALTIMORE      CLOUDY    52  35  52 SW12G18   30.30F
ANNAPOLIS      MOSUNNY   53  33  46 S13G22    30.31F
ANDREWS AFB    MOSUNNY   54  33  45 S20       30.29F
PHILADELPHIA   CLOUDY    55  29  36 SW22G30   30.29F
HENDERSON NC   MOSUNNY   64  42  45 SW15G28   30.41F
GREENSBORO     MOSUNNY   62  44  51 SW13      30.42F
ROCKY MOUNT    SUNNY     68  46  45 SW12G26   30.43F
$$

VAZ100-241900-
MARINE

STATION/POSITION TIME  TEMP    WIND        PRES    WAVE   SWELL
                       AIR SEA DIR/SP/G            HT/PER HT/PER
                 (UTC) (F)     (DEG/KT/KT) (MB)    (FT/S) (FT/S)
CAPE MAY NJ      1748   47 43  150/ 12/ 15 1027.7F
LEWES DE         1742   58 42  250/ 10/ 15 1027.9F
OCEAN-CITY-INLET 1742   45 44  220/ 17/ 21 1029.6F
WACHAPREAGUE VA  1742   52 47  190/ 13/ 16 1029.5F
THOMAS POINT MD  1800   44 44  170/ 19/ 20   N/A
GOOSES REEF MD   1800   45 44  170/ 10/ 12 1028.1    1/ 2
COVE POINT MD    1742   46     180/ 11/ 12 1028.6F
SOLOMONS ISLAND  1742   50 45  200/  5/  8   N/A
BISHOPS HEAD MD  1748   48 45  170/ 17/ 18 1028.4F
PINEY POINT MD   1748          240/  3/  4   N/A
POTOMAC MD       1800   50 45  180/  6/  8 1027.0    1/ 3
CAMBRIDGE MD     1748   53 44  180/ 10/ 17 1027.3F
LEWISETTA VA     1742   54 46  230/ 11/ 14 1027.5F
RAPPAHANNOCK LGT 1748          170/ 17/ 18 1029.4F
STINGRAY PT      1750   49     190/ 14/ 16 1028.6F
YORK RVR RNG VA  1742   55     210/ 14/ 15 1028.6F
YORKTOWN VA      1742   60 47  210/ 11/ 14 1028.9F
JAMESTOWN VA     1800   59 51  210/  8/ 14   N/A     0
DOMINION TERM VA 1742   56     220/ 11/ 13 1029.8F
KIPTOPEKE VA     1742      46  180/  8/  9   N/A
CHES BAY BRIDGE  1742   58 48  240/ 13/ 14 1029.7F
CAPE HENRY VA    1742   61     210/  9/ 14   N/A
WILLOUBY STN VA  1742   57     230/ 14/ 16 1030.4F
S CRANEY ISL VA  1742   62     240/  9/ 14 1029.8F
CAPE HENRY BUOY  1742      46                N/A     2/ 6
CAPE CHARLES BUO 1751      47                N/A     3/ 3
OFFSHORE WE BUOY 1751      47                N/A     3/10
64NM E OF VA BCH 1750   53 51  190/ 10/ 14 1031.3F   3/10   3/10
DUCK PIER NC     1742   59 48  240/  7/  9 1031.0F
44100 DUCK FRF   1735      49                N/A     3/ 9   2/11
44056 DUCK FRF   1730      50                N/A     3/ 8
OREGON INLET NC  1742   56 49  180/ 13/ 14 1032.2F
HATTERAS NC      1742   63 53  210/  6/  9 1032.4F
DIAMOND SHLS NC  1750   64 75  210/ 14/ 17 1032.9F   4/10   3/10
CAPE LOOKOUT NC  1800   65     190/ 11/ 14 1032.1F
$$




USA.gov is the U.S. government's official web portal to all federal, state and local government web resources and services.